Time,TemperatureF,DewpointF,PressureIn,WindDirection,WindDirectionDegrees,WindSpeedMPH,WindSpeedGustMPH,Humidity,HourlyPrecipIn,Conditions,Clouds,dailyrainin,SoftwareType,DateUTC
2013-08-20 00:02:00,66.0,43.0,27.01,ESE,112,1.0,3.0,43,0.00,,,0.00,Rainwise IP-100,2013-08-20 06:02:00,
2013-08-20 00:07:00,66.0,43.0,27.02,SSE,157,1.0,4.0,44,0.00,,,0.00,Rainwise IP-100,2013-08-20 06:07:00,
2013-08-20 00:12:00,66.0,43.0,27.02,SSE,157,0.0,4.0,43,0.00,,,0.00,Rainwise IP-100,2013-08-20 06:12:00,
2013-08-20 00:17:00,66.0,43.0,27.01,NE,45,4.0,4.0,43,0.00,,,0.00,Rainwise IP-100,2013-08-20 06:17:00,
2013-08-20 00:22:00,66.0,43.0,27.01,SW,225,0.0,5.0,44,0.00,,,0.00,Rainwise IP-100,2013-08-20 06:22:00,
2013-08-20 00:27:00,65.0,42.0,27.01,SW,225,0.0,1.0,44,0.00,,,0.00,Rainwise IP-100,2013-08-20 06:27:00,
2013-08-20 00:32:00,65.0,43.0,27.01,SE,135,3.0,3.0,45,0.00,,,0.00,Rainwise IP-100,2013-08-20 06:32:00,
2013-08-20 00:37:00,65.0,43.0,27.01,West,270,0.0,5.0,45,0.00,,,0.00,Rainwise IP-100,2013-08-20 06:37:00,
2013-08-20 00:42:00,64.0,42.0,27.01,East,90,0.0,4.0,45,0.00,,,0.00,Rainwise IP-100,2013-08-20 06:42:00,
2013-08-20 00:47:00,64.0,43.0,27.01,ENE,67,2.0,3.0,47,0.00,,,0.00,Rainwise IP-100,2013-08-20 06:47:00,
2013-08-20 00:52:00,64.0,43.0,27.01,SSE,157,0.0,4.0,47,0.00,,,0.00,Rainwise IP-100,2013-08-20 06:52:00,
2013-08-20 00:57:00,64.0,43.0,27.01,SSE,157,1.0,5.0,47,0.00,,,0.00,Rainwise IP-100,2013-08-20 06:57:00,
2013-08-20 01:02:00,64.0,43.0,27.01,SSE,157,0.0,2.0,47,0.00,,,0.00,Rainwise IP-100,2013-08-20 07:02:00,
2013-08-20 01:07:00,63.0,43.0,27.01,SSE,157,0.0,1.0,48,0.00,,,0.00,Rainwise IP-100,2013-08-20 07:07:00,
2013-08-20 01:12:00,63.0,43.0,27.01,SE,135,0.0,0.0,49,0.00,,,0.00,Rainwise IP-100,2013-08-20 07:12:00,
2013-08-20 01:17:00,62.0,42.0,27.02,SE,135,0.0,0.0,49,0.00,,,0.00,Rainwise IP-100,2013-08-20 07:17:00,
2013-08-20 01:22:00,62.0,43.0,27.02,ESE,112,0.0,3.0,50,0.00,,,0.00,Rainwise IP-100,2013-08-20 07:22:00,
2013-08-20 01:27:00,62.0,43.0,27.03,ESE,112,0.0,0.0,50,0.00,,,0.00,Rainwise IP-100,2013-08-20 07:27:00,
2013-08-20 01:32:00,61.0,43.0,27.03,ESE,112,0.0,0.0,52,0.00,,,0.00,Rainwise IP-100,2013-08-20 07:32:00,
2013-08-20 01:37:00,61.0,44.0,27.03,ESE,112,0.0,1.0,53,0.00,,,0.00,Rainwise IP-100,2013-08-20 07:37:00,
2013-08-20 01:42:00,61.0,44.0,27.03,ESE,112,0.0,0.0,54,0.00,,,0.00,Rainwise IP-100,2013-08-20 07:42:00,
2013-08-20 01:47:00,60.0,43.0,27.03,ESE,112,0.0,0.0,54,0.00,,,0.00,Rainwise IP-100,2013-08-20 07:47:00,
2013-08-20 01:52:00,60.0,43.0,27.03,ESE,112,0.0,0.0,54,0.00,,,0.00,Rainwise IP-100,2013-08-20 07:52:00,
2013-08-20 01:57:00,60.0,44.0,27.03,ESE,112,0.0,0.0,55,0.00,,,0.00,Rainwise IP-100,2013-08-20 07:57:00,
2013-08-20 02:02:00,59.0,42.0,27.03,ESE,112,0.0,0.0,54,0.00,,,0.00,Rainwise IP-100,2013-08-20 08:02:00,
2013-08-20 02:07:00,60.0,44.0,27.03,ESE,112,0.0,0.0,56,0.00,,,0.00,Rainwise IP-100,2013-08-20 08:07:00,
2013-08-20 02:12:00,60.0,44.0,27.03,ESE,112,0.0,0.0,56,0.00,,,0.00,Rainwise IP-100,2013-08-20 08:12:00,
2013-08-20 02:17:00,60.0,45.0,27.03,WNW,292,2.0,2.0,57,0.00,,,0.00,Rainwise IP-100,2013-08-20 08:17:00,
2013-08-20 02:22:00,59.0,43.0,27.03,WNW,292,0.0,4.0,55,0.00,,,0.00,Rainwise IP-100,2013-08-20 08:22:00,
2013-08-20 02:27:00,59.0,43.0,27.03,WNW,292,0.0,0.0,56,0.00,,,0.00,Rainwise IP-100,2013-08-20 08:27:00,
2013-08-20 02:32:00,59.0,43.0,27.03,WNW,292,2.0,3.0,56,0.00,,,0.00,Rainwise IP-100,2013-08-20 08:32:00,
2013-08-20 02:37:00,59.0,43.0,27.03,WNW,292,0.0,3.0,56,0.00,,,0.00,Rainwise IP-100,2013-08-20 08:37:00,
2013-08-20 02:42:00,59.0,43.0,27.03,WNW,292,2.0,0.0,56,0.00,,,0.00,Rainwise IP-100,2013-08-20 08:42:00,
2013-08-20 02:47:00,59.0,44.0,27.03,WNW,292,0.0,3.0,58,0.00,,,0.00,Rainwise IP-100,2013-08-20 08:47:00,
2013-08-20 02:52:00,58.0,44.0,27.03,East,90,0.0,4.0,59,0.00,,,0.00,Rainwise IP-100,2013-08-20 08:52:00,
2013-08-20 02:57:00,58.0,43.0,27.03,WNW,292,0.0,4.0,58,0.00,,,0.00,Rainwise IP-100,2013-08-20 08:57:00,
2013-08-20 03:02:00,58.0,44.0,27.03,WSW,247,0.0,2.0,59,0.00,,,0.00,Rainwise IP-100,2013-08-20 09:02:00,
2013-08-20 03:07:00,58.0,44.0,27.04,WSW,247,0.0,2.0,59,0.00,,,0.00,Rainwise IP-100,2013-08-20 09:07:00,
2013-08-20 03:12:00,58.0,44.0,27.04,WNW,292,0.0,3.0,60,0.00,,,0.00,Rainwise IP-100,2013-08-20 09:12:00,
2013-08-20 03:17:00,58.0,45.0,27.04,SSW,202,0.0,4.0,61,0.00,,,0.00,Rainwise IP-100,2013-08-20 09:17:00,
2013-08-20 03:22:00,58.0,44.0,27.04,WSW,247,0.0,4.0,60,0.00,,,0.00,Rainwise IP-100,2013-08-20 09:22:00,
2013-08-20 03:27:00,58.0,44.0,27.04,SW,225,0.0,2.0,60,0.00,,,0.00,Rainwise IP-100,2013-08-20 09:27:00,
2013-08-20 03:32:00,58.0,45.0,27.04,SW,225,0.0,1.0,61,0.00,,,0.00,Rainwise IP-100,2013-08-20 09:32:00,
2013-08-20 03:37:00,57.0,45.0,27.04,SW,225,0.0,0.0,63,0.00,,,0.00,Rainwise IP-100,2013-08-20 09:37:00,
2013-08-20 03:42:00,57.0,45.0,27.04,WNW,292,0.0,4.0,63,0.00,,,0.00,Rainwise IP-100,2013-08-20 09:42:00,
2013-08-20 03:47:00,57.0,45.0,27.05,SW,225,0.0,3.0,63,0.00,,,0.00,Rainwise IP-100,2013-08-20 09:47:00,
2013-08-20 03:52:00,57.0,45.0,27.05,NW,315,1.0,3.0,64,0.00,,,0.00,Rainwise IP-100,2013-08-20 09:52:00,
2013-08-20 03:57:00,57.0,45.0,27.04,NW,315,0.0,2.0,64,0.00,,,0.00,Rainwise IP-100,2013-08-20 09:57:00,
2013-08-20 04:02:00,57.0,45.0,27.04,NE,45,0.0,1.0,64,0.00,,,0.00,Rainwise IP-100,2013-08-20 10:02:00,
2013-08-20 04:07:00,57.0,46.0,27.04,SE,135,1.0,3.0,66,0.00,,,0.00,Rainwise IP-100,2013-08-20 10:07:00,
2013-08-20 04:12:00,56.0,45.0,27.04,WSW,247,0.0,4.0,66,0.00,,,0.00,Rainwise IP-100,2013-08-20 10:12:00,
2013-08-20 04:17:00,56.0,44.0,27.04,South,180,2.0,5.0,65,0.00,,,0.00,Rainwise IP-100,2013-08-20 10:17:00,
2013-08-20 04:22:00,56.0,44.0,27.04,South,180,0.0,3.0,65,0.00,,,0.00,Rainwise IP-100,2013-08-20 10:22:00,
2013-08-20 04:27:00,56.0,44.0,27.04,WSW,247,0.0,2.0,65,0.00,,,0.00,Rainwise IP-100,2013-08-20 10:27:00,
2013-08-20 04:32:00,56.0,44.0,27.04,WSW,247,0.0,0.0,65,0.00,,,0.00,Rainwise IP-100,2013-08-20 10:32:00,
2013-08-20 04:37:00,56.0,45.0,27.05,WSW,247,0.0,0.0,66,0.00,,,0.00,Rainwise IP-100,2013-08-20 10:37:00,
2013-08-20 04:42:00,56.0,45.0,27.05,WSW,247,0.0,0.0,66,0.00,,,0.00,Rainwise IP-100,2013-08-20 10:42:00,
2013-08-20 04:47:00,56.0,45.0,27.05,WSW,247,0.0,1.0,66,0.00,,,0.00,Rainwise IP-100,2013-08-20 10:47:00,
2013-08-20 04:52:00,56.0,45.0,27.05,WSW,247,0.0,0.0,66,0.00,,,0.00,Rainwise IP-100,2013-08-20 10:52:00,
2013-08-20 04:57:00,56.0,45.0,27.05,WSW,247,0.0,0.0,66,0.00,,,0.00,Rainwise IP-100,2013-08-20 10:57:00,
2013-08-20 05:02:00,56.0,45.0,27.05,WSW,247,0.0,0.0,66,0.00,,,0.00,Rainwise IP-100,2013-08-20 11:02:00,
2013-08-20 05:07:00,56.0,45.0,27.06,WSW,247,0.0,0.0,66,0.00,,,0.00,Rainwise IP-100,2013-08-20 11:07:00,
2013-08-20 05:12:00,56.0,45.0,27.06,WSW,247,0.0,0.0,66,0.00,,,0.00,Rainwise IP-100,2013-08-20 11:12:00,
2013-08-20 05:17:00,56.0,45.0,27.06,WSW,247,0.0,0.0,66,0.00,,,0.00,Rainwise IP-100,2013-08-20 11:17:00,
2013-08-20 05:22:00,55.0,45.0,27.06,WSW,247,0.0,0.0,68,0.00,,,0.00,Rainwise IP-100,2013-08-20 11:22:00,
2013-08-20 05:27:00,55.0,45.0,27.06,WSW,247,0.0,0.0,68,0.00,,,0.00,Rainwise IP-100,2013-08-20 11:27:00,
2013-08-20 05:32:00,55.0,45.0,27.06,WSW,247,0.0,0.0,69,0.00,,,0.00,Rainwise IP-100,2013-08-20 11:32:00,
2013-08-20 05:37:00,54.0,44.0,27.06,WSW,247,0.0,0.0,70,0.00,,,0.00,Rainwise IP-100,2013-08-20 11:37:00,
2013-08-20 05:42:00,54.0,44.0,27.06,WSW,247,0.0,0.0,69,0.00,,,0.00,Rainwise IP-100,2013-08-20 11:42:00,
2013-08-20 05:47:00,54.0,44.0,27.07,WSW,247,0.0,0.0,70,0.00,,,0.00,Rainwise IP-100,2013-08-20 11:47:00,
2013-08-20 05:52:00,54.0,46.0,27.07,WSW,247,0.0,1.0,73,0.00,,,0.00,Rainwise IP-100,2013-08-20 11:52:00,
2013-08-20 05:57:00,53.0,44.0,27.07,WSW,247,0.0,0.0,72,0.00,,,0.00,Rainwise IP-100,2013-08-20 11:57:00,
2013-08-20 06:02:00,53.0,44.0,27.07,WSW,247,0.0,0.0,73,0.00,,,0.00,Rainwise IP-100,2013-08-20 12:02:00,
2013-08-20 06:07:00,53.0,44.0,27.07,WSW,247,0.0,0.0,72,0.00,,,0.00,Rainwise IP-100,2013-08-20 12:07:00,
2013-08-20 06:12:00,53.0,44.0,27.07,WSW,247,0.0,3.0,72,0.00,,,0.00,Rainwise IP-100,2013-08-20 12:12:00,
2013-08-20 06:17:00,54.0,46.0,27.07,WSW,247,0.0,0.0,73,0.00,,,0.00,Rainwise IP-100,2013-08-20 12:17:00,
2013-08-20 06:22:00,53.0,44.0,27.07,WSW,247,0.0,0.0,72,0.00,,,0.00,Rainwise IP-100,2013-08-20 12:22:00,
2013-08-20 06:27:00,53.0,44.0,27.07,WSW,247,0.0,0.0,72,0.00,,,0.00,Rainwise IP-100,2013-08-20 12:27:00,
2013-08-20 06:32:00,53.0,44.0,27.07,WSW,247,0.0,0.0,73,0.00,,,0.00,Rainwise IP-100,2013-08-20 12:32:00,
2013-08-20 06:37:00,53.0,44.0,27.08,WSW,247,0.0,0.0,73,0.00,,,0.00,Rainwise IP-100,2013-08-20 12:37:00,
2013-08-20 06:42:00,52.0,44.0,27.08,WSW,247,0.0,0.0,75,0.00,,,0.00,Rainwise IP-100,2013-08-20 12:42:00,
2013-08-20 06:47:00,53.0,45.0,27.08,WSW,247,1.0,3.0,75,0.00,,,0.00,Rainwise IP-100,2013-08-20 12:47:00,
2013-08-20 06:52:00,53.0,45.0,27.08,WSW,247,0.0,3.0,74,0.00,,,0.00,Rainwise IP-100,2013-08-20 12:52:00,
2013-08-20 06:57:00,53.0,45.0,27.08,WSW,247,0.0,0.0,74,0.00,,,0.00,Rainwise IP-100,2013-08-20 12:57:00,
2013-08-20 07:02:00,53.0,44.0,27.08,WSW,247,0.0,0.0,73,0.00,,,0.00,Rainwise IP-100,2013-08-20 13:02:00,
2013-08-20 07:07:00,53.0,44.0,27.08,WSW,247,0.0,0.0,73,0.00,,,0.00,Rainwise IP-100,2013-08-20 13:07:00,
2013-08-20 07:12:00,53.0,45.0,27.08,WSW,247,0.0,0.0,74,0.00,,,0.00,Rainwise IP-100,2013-08-20 13:12:00,
2013-08-20 07:17:00,53.0,45.0,27.09,WSW,247,0.0,0.0,75,0.00,,,0.00,Rainwise IP-100,2013-08-20 13:17:00,
2013-08-20 07:22:00,54.0,46.0,27.09,WSW,247,0.0,0.0,74,0.00,,,0.00,Rainwise IP-100,2013-08-20 13:22:00,
2013-08-20 07:27:00,55.0,46.0,27.08,WSW,247,0.0,0.0,71,0.00,,,0.00,Rainwise IP-100,2013-08-20 13:27:00,
2013-08-20 07:32:00,56.0,46.0,27.08,WSW,247,0.0,0.0,69,0.00,,,0.00,Rainwise IP-100,2013-08-20 13:32:00,
2013-08-20 07:37:00,58.0,47.0,27.08,East,90,2.0,2.0,65,0.00,,,0.00,Rainwise IP-100,2013-08-20 13:37:00,
2013-08-20 07:42:00,58.0,46.0,27.08,East,90,2.0,3.0,63,0.00,,,0.00,Rainwise IP-100,2013-08-20 13:42:00,
2013-08-20 07:47:00,59.0,46.0,27.09,East,90,0.0,2.0,62,0.00,,,0.00,Rainwise IP-100,2013-08-20 13:47:00,
2013-08-20 07:52:00,60.0,46.0,27.09,East,90,0.0,1.0,60,0.00,,,0.00,Rainwise IP-100,2013-08-20 13:52:00,
2013-08-20 07:57:00,61.0,46.0,27.10,East,90,0.0,2.0,58,0.00,,,0.00,Rainwise IP-100,2013-08-20 13:57:00,
2013-08-20 08:02:00,62.0,47.0,27.10,East,90,0.0,2.0,57,0.00,,,0.00,Rainwise IP-100,2013-08-20 14:02:00,
2013-08-20 08:07:00,62.0,46.0,27.09,East,90,1.0,3.0,55,0.00,,,0.00,Rainwise IP-100,2013-08-20 14:07:00,
2013-08-20 08:12:00,63.0,46.0,27.09,East,90,0.0,2.0,53,0.00,,,0.00,Rainwise IP-100,2013-08-20 14:12:00,
2013-08-20 08:17:00,64.0,46.0,27.10,East,90,0.0,0.0,51,0.00,,,0.00,Rainwise IP-100,2013-08-20 14:17:00,
2013-08-20 08:22:00,64.0,45.0,27.10,East,90,0.0,1.0,50,0.00,,,0.00,Rainwise IP-100,2013-08-20 14:22:00,
2013-08-20 08:27:00,65.0,45.0,27.10,East,90,0.0,1.0,49,0.00,,,0.00,Rainwise IP-100,2013-08-20 14:27:00,
2013-08-20 08:32:00,65.0,45.0,27.10,SE,135,0.0,2.0,48,0.00,,,0.00,Rainwise IP-100,2013-08-20 14:32:00,
2013-08-20 08:37:00,66.0,45.0,27.10,SE,135,0.0,2.0,47,0.00,,,0.00,Rainwise IP-100,2013-08-20 14:37:00,
2013-08-20 08:42:00,65.0,45.0,27.10,West,270,2.0,5.0,49,0.00,,,0.00,Rainwise IP-100,2013-08-20 14:42:00,
2013-08-20 08:47:00,66.0,45.0,27.11,NW,315,0.0,3.0,47,0.00,,,0.00,Rainwise IP-100,2013-08-20 14:47:00,
2013-08-20 08:52:00,66.0,45.0,27.11,South,180,1.0,6.0,47,0.00,,,0.00,Rainwise IP-100,2013-08-20 14:52:00,
2013-08-20 08:57:00,66.0,44.0,27.11,SSW,202,0.0,3.0,46,0.00,,,0.00,Rainwise IP-100,2013-08-20 14:57:00,
2013-08-20 09:02:00,67.0,46.0,27.11,SW,225,1.0,3.0,47,0.00,,,0.00,Rainwise IP-100,2013-08-20 15:02:00,
2013-08-20 09:07:00,68.0,47.0,27.11,NW,315,0.0,3.0,47,0.00,,,0.00,Rainwise IP-100,2013-08-20 15:07:00,
2013-08-20 09:12:00,68.0,47.0,27.11,NW,315,1.0,6.0,46,0.00,,,0.00,Rainwise IP-100,2013-08-20 15:12:00,
2013-08-20 09:17:00,67.0,45.0,27.12,West,270,2.0,6.0,45,0.00,,,0.00,Rainwise IP-100,2013-08-20 15:17:00,
2013-08-20 09:22:00,67.0,46.0,27.12,West,270,2.0,5.0,47,0.00,,,0.00,Rainwise IP-100,2013-08-20 15:22:00,
2013-08-20 09:27:00,68.0,47.0,27.12,WSW,247,1.0,5.0,46,0.00,,,0.00,Rainwise IP-100,2013-08-20 15:27:00,
2013-08-20 09:32:00,68.0,47.0,27.12,WSW,247,1.0,6.0,46,0.00,,,0.00,Rainwise IP-100,2013-08-20 15:32:00,
2013-08-20 09:37:00,69.0,47.0,27.11,WNW,292,0.0,2.0,45,0.00,,,0.00,Rainwise IP-100,2013-08-20 15:37:00,
2013-08-20 09:42:00,70.0,47.0,27.11,SW,225,0.0,4.0,44,0.00,,,0.00,Rainwise IP-100,2013-08-20 15:42:00,
2013-08-20 09:47:00,70.0,47.0,27.12,West,270,2.0,4.0,45,0.00,,,0.00,Rainwise IP-100,2013-08-20 15:47:00,
2013-08-20 09:52:00,68.0,46.0,27.12,West,270,5.0,6.0,45,0.00,,,0.00,Rainwise IP-100,2013-08-20 15:52:00,
2013-08-20 09:57:00,68.0,47.0,27.13,West,270,2.0,6.0,46,0.00,,,0.00,Rainwise IP-100,2013-08-20 15:57:00,
2013-08-20 10:02:00,69.0,47.0,27.13,SSE,157,2.0,5.0,45,0.00,,,0.00,Rainwise IP-100,2013-08-20 16:02:00,
2013-08-20 10:07:00,69.0,47.0,27.12,West,270,0.0,4.0,45,0.00,,,0.00,Rainwise IP-100,2013-08-20 16:07:00,
2013-08-20 10:12:00,69.0,46.0,27.12,West,270,1.0,6.0,43,0.00,,,0.00,Rainwise IP-100,2013-08-20 16:12:00,
2013-08-20 10:17:00,70.0,45.0,27.13,West,270,2.0,6.0,41,0.00,,,0.00,Rainwise IP-100,2013-08-20 16:17:00,
2013-08-20 10:22:00,71.0,45.0,27.13,SSW,202,3.0,6.0,40,0.00,,,0.00,Rainwise IP-100,2013-08-20 16:22:00,
2013-08-20 10:27:00,72.0,46.0,27.12,South,180,0.0,5.0,39,0.00,,,0.00,Rainwise IP-100,2013-08-20 16:27:00,
2013-08-20 10:32:00,73.0,45.0,27.12,NNE,22,1.0,4.0,37,0.00,,,0.00,Rainwise IP-100,2013-08-20 16:32:00,
2013-08-20 10:37:00,73.0,45.0,27.12,NW,315,2.0,3.0,37,0.00,,,0.00,Rainwise IP-100,2013-08-20 16:37:00,
2013-08-20 10:42:00,74.0,46.0,27.12,SE,135,3.0,3.0,37,0.00,,,0.00,Rainwise IP-100,2013-08-20 16:42:00,
2013-08-20 10:47:00,74.0,46.0,27.13,South,180,0.0,5.0,37,0.00,,,0.00,Rainwise IP-100,2013-08-20 16:47:00,
2013-08-20 10:52:00,75.0,45.0,27.13,SSE,157,1.0,5.0,34,0.00,,,0.00,Rainwise IP-100,2013-08-20 16:52:00,
2013-08-20 10:57:00,75.0,46.0,27.13,SSW,202,3.0,6.0,35,0.00,,,0.00,Rainwise IP-100,2013-08-20 16:57:00,
2013-08-20 11:02:00,76.0,46.0,27.13,South,180,6.0,6.0,34,0.00,,,0.00,Rainwise IP-100,2013-08-20 17:02:00,
2013-08-20 11:07:00,75.0,45.0,27.14,SE,135,3.0,6.0,34,0.00,,,0.00,Rainwise IP-100,2013-08-20 17:07:00,
2013-08-20 11:12:00,75.0,45.0,27.14,South,180,3.0,6.0,34,0.00,,,0.00,Rainwise IP-100,2013-08-20 17:12:00,
2013-08-20 11:17:00,76.0,45.0,27.13,ESE,112,3.0,5.0,33,0.00,,,0.00,Rainwise IP-100,2013-08-20 17:17:00,
2013-08-20 11:22:00,76.0,45.0,27.13,SSW,202,3.0,4.0,33,0.00,,,0.00,Rainwise IP-100,2013-08-20 17:22:00,
2013-08-20 11:27:00,77.0,46.0,27.13,NW,315,5.0,6.0,33,0.00,,,0.00,Rainwise IP-100,2013-08-20 17:27:00,
2013-08-20 11:32:00,77.0,46.0,27.13,SE,135,1.0,6.0,33,0.00,,,0.00,Rainwise IP-100,2013-08-20 17:32:00,
2013-08-20 11:37:00,77.0,45.0,27.14,NNE,22,6.0,6.0,32,0.00,,,0.00,Rainwise IP-100,2013-08-20 17:37:00,
2013-08-20 11:42:00,77.0,45.0,27.14,WNW,292,4.0,8.0,32,0.00,,,0.00,Rainwise IP-100,2013-08-20 17:42:00,
2013-08-20 11:47:00,78.0,45.0,27.12,ESE,112,0.0,6.0,31,0.00,,,0.00,Rainwise IP-100,2013-08-20 17:47:00,
2013-08-20 11:52:00,79.0,46.0,27.12,South,180,1.0,5.0,31,0.00,,,0.00,Rainwise IP-100,2013-08-20 17:52:00,
2013-08-20 11:57:00,78.0,47.0,27.12,NNW,337,3.0,7.0,33,0.00,,,0.00,Rainwise IP-100,2013-08-20 17:57:00,
2013-08-20 12:02:00,78.0,46.0,27.12,SSE,157,0.0,7.0,32,0.00,,,0.00,Rainwise IP-100,2013-08-20 18:02:00,
2013-08-20 12:07:00,78.0,46.0,27.11,SSE,157,4.0,6.0,32,0.00,,,0.00,Rainwise IP-100,2013-08-20 18:07:00,
2013-08-20 12:12:00,79.0,47.0,27.11,NW,315,2.0,7.0,33,0.00,,,0.00,Rainwise IP-100,2013-08-20 18:12:00,
2013-08-20 12:17:00,79.0,46.0,27.11,WSW,247,2.0,7.0,31,0.00,,,0.00,Rainwise IP-100,2013-08-20 18:17:00,
2013-08-20 12:22:00,80.0,47.0,27.11,ESE,112,3.0,6.0,31,0.00,,,0.00,Rainwise IP-100,2013-08-20 18:22:00,
2013-08-20 12:27:00,79.0,47.0,27.11,East,90,7.0,7.0,32,0.00,,,0.00,Rainwise IP-100,2013-08-20 18:27:00,
2013-08-20 12:32:00,80.0,46.0,27.11,NNE,22,1.0,8.0,30,0.00,,,0.00,Rainwise IP-100,2013-08-20 18:32:00,
2013-08-20 12:37:00,80.0,45.0,27.10,SE,135,2.0,7.0,29,0.00,,,0.00,Rainwise IP-100,2013-08-20 18:37:00,
2013-08-20 12:42:00,81.0,46.0,27.10,WNW,292,1.0,5.0,29,0.00,,,0.00,Rainwise IP-100,2013-08-20 18:42:00,
2013-08-20 12:47:00,81.0,45.0,27.09,NNW,337,7.0,7.0,28,0.00,,,0.00,Rainwise IP-100,2013-08-20 18:47:00,
2013-08-20 12:52:00,81.0,46.0,27.09,NNE,22,6.0,9.0,29,0.00,,,0.00,Rainwise IP-100,2013-08-20 18:52:00,
2013-08-20 12:57:00,81.0,46.0,27.09,West,270,4.0,9.0,29,0.00,,,0.00,Rainwise IP-100,2013-08-20 18:57:00,
2013-08-20 13:02:00,82.0,47.0,27.09,North,360,1.0,7.0,29,0.00,,,0.00,Rainwise IP-100,2013-08-20 19:02:00,
2013-08-20 13:07:00,82.0,46.0,27.09,NNW,337,6.0,9.0,28,0.00,,,0.00,Rainwise IP-100,2013-08-20 19:07:00,
2013-08-20 13:12:00,81.0,45.0,27.09,WSW,247,0.0,10.0,28,0.00,,,0.00,Rainwise IP-100,2013-08-20 19:12:00,
2013-08-20 13:17:00,82.0,45.0,27.09,SSE,157,1.0,9.0,27,0.00,,,0.00,Rainwise IP-100,2013-08-20 19:17:00,
2013-08-20 13:22:00,81.0,45.0,27.09,WSW,247,6.0,8.0,28,0.00,,,0.00,Rainwise IP-100,2013-08-20 19:22:00,
2013-08-20 13:27:00,82.0,45.0,27.10,North,360,3.0,9.0,27,0.00,,,0.00,Rainwise IP-100,2013-08-20 19:27:00,
2013-08-20 13:32:00,82.0,45.0,27.10,NW,315,4.0,10.0,27,0.00,,,0.00,Rainwise IP-100,2013-08-20 19:32:00,
2013-08-20 13:37:00,82.0,45.0,27.09,NNW,337,2.0,9.0,27,0.00,,,0.00,Rainwise IP-100,2013-08-20 19:37:00,
2013-08-20 13:42:00,82.0,45.0,27.09,North,360,4.0,9.0,27,0.00,,,0.00,Rainwise IP-100,2013-08-20 19:42:00,
2013-08-20 13:47:00,83.0,46.0,27.09,WSW,247,3.0,6.0,27,0.00,,,0.00,Rainwise IP-100,2013-08-20 19:47:00,
2013-08-20 13:52:00,84.0,45.0,27.09,SW,225,4.0,6.0,25,0.00,,,0.00,Rainwise IP-100,2013-08-20 19:52:00,
2013-08-20 13:57:00,84.0,46.0,27.07,SE,135,6.0,6.0,26,0.00,,,0.00,Rainwise IP-100,2013-08-20 19:57:00,
2013-08-20 14:02:00,84.0,45.0,27.07,East,90,0.0,7.0,25,0.00,,,0.00,Rainwise IP-100,2013-08-20 20:02:00,
2013-08-20 14:07:00,84.0,46.0,27.08,South,180,2.0,7.0,26,0.00,,,0.00,Rainwise IP-100,2013-08-20 20:07:00,
2013-08-20 14:12:00,84.0,43.0,27.08,East,90,3.0,7.0,24,0.00,,,0.00,Rainwise IP-100,2013-08-20 20:12:00,
2013-08-20 14:17:00,84.0,45.0,27.08,South,180,0.0,7.0,25,0.00,,,0.00,Rainwise IP-100,2013-08-20 20:17:00,
2013-08-20 14:22:00,84.0,45.0,27.08,ENE,67,3.0,7.0,25,0.00,,,0.00,Rainwise IP-100,2013-08-20 20:22:00,
2013-08-20 14:27:00,84.0,43.0,27.08,ESE,112,4.0,7.0,24,0.00,,,0.00,Rainwise IP-100,2013-08-20 20:27:00,
2013-08-20 14:32:00,84.0,43.0,27.08,ESE,112,3.0,7.0,24,0.00,,,0.00,Rainwise IP-100,2013-08-20 20:32:00,
2013-08-20 14:37:00,85.0,44.0,27.07,ENE,67,6.0,12.0,24,0.00,,,0.00,Rainwise IP-100,2013-08-20 20:37:00,
2013-08-20 14:42:00,84.0,42.0,27.07,NNE,22,6.0,9.0,23,0.00,,,0.00,Rainwise IP-100,2013-08-20 20:42:00,
2013-08-20 14:47:00,84.0,43.0,27.07,SE,135,5.0,12.0,24,0.00,,,0.00,Rainwise IP-100,2013-08-20 20:47:00,
2013-08-20 14:52:00,85.0,42.0,27.07,West,270,5.0,11.0,22,0.00,,,0.00,Rainwise IP-100,2013-08-20 20:52:00,
2013-08-20 14:57:00,86.0,43.0,27.07,SW,225,0.0,9.0,22,0.00,,,0.00,Rainwise IP-100,2013-08-20 20:57:00,
2013-08-20 15:02:00,85.0,39.0,27.07,West,270,4.0,11.0,20,0.00,,,0.00,Rainwise IP-100,2013-08-20 21:02:00,
2013-08-20 15:07:00,86.0,41.0,27.08,WSW,247,5.0,12.0,21,0.00,,,0.00,Rainwise IP-100,2013-08-20 21:07:00,
2013-08-20 15:12:00,86.0,40.0,27.08,WNW,292,6.0,12.0,20,0.00,,,0.00,Rainwise IP-100,2013-08-20 21:12:00,
2013-08-20 15:17:00,85.0,39.0,27.07,North,360,9.0,12.0,20,0.00,,,0.00,Rainwise IP-100,2013-08-20 21:17:00,
2013-08-20 15:22:00,85.0,40.0,27.07,NW,315,10.0,16.0,21,0.00,,,0.00,Rainwise IP-100,2013-08-20 21:22:00,
2013-08-20 15:27:00,85.0,40.0,27.07,WSW,247,6.0,15.0,21,0.00,,,0.00,Rainwise IP-100,2013-08-20 21:27:00,
2013-08-20 15:32:00,84.0,40.0,27.07,North,360,12.0,22.0,21,0.00,,,0.00,Rainwise IP-100,2013-08-20 21:32:00,
2013-08-20 15:37:00,85.0,40.0,27.06,NW,315,12.0,17.0,21,0.00,,,0.00,Rainwise IP-100,2013-08-20 21:37:00,
2013-08-20 15:42:00,84.0,40.0,27.06,NNE,22,7.0,19.0,21,0.00,,,0.00,Rainwise IP-100,2013-08-20 21:42:00,
2013-08-20 15:47:00,84.0,40.0,27.05,NW,315,12.0,16.0,21,0.00,,,0.00,Rainwise IP-100,2013-08-20 21:47:00,
2013-08-20 15:52:00,84.0,40.0,27.05,NNW,337,9.0,16.0,21,0.00,,,0.00,Rainwise IP-100,2013-08-20 21:52:00,
2013-08-20 15:57:00,85.0,39.0,27.05,NW,315,2.0,15.0,20,0.00,,,0.00,Rainwise IP-100,2013-08-20 21:57:00,
2013-08-20 16:02:00,84.0,40.0,27.05,WNW,292,15.0,18.0,21,0.00,,,0.00,Rainwise IP-100,2013-08-20 22:02:00,
2013-08-20 16:07:00,84.0,40.0,27.05,North,360,8.0,21.0,21,0.00,,,0.00,Rainwise IP-100,2013-08-20 22:07:00,
2013-08-20 16:12:00,84.0,40.0,27.05,WNW,292,13.0,19.0,21,0.00,,,0.00,Rainwise IP-100,2013-08-20 22:12:00,
2013-08-20 16:17:00,84.0,39.0,27.03,WNW,292,10.0,16.0,20,0.00,,,0.00,Rainwise IP-100,2013-08-20 22:17:00,
2013-08-20 16:22:00,84.0,37.0,27.03,NW,315,8.0,19.0,19,0.00,,,0.00,Rainwise IP-100,2013-08-20 22:22:00,
2013-08-20 16:27:00,84.0,39.0,27.03,NW,315,16.0,18.0,20,0.00,,,0.00,Rainwise IP-100,2013-08-20 22:27:00,
2013-08-20 16:32:00,85.0,39.0,27.03,North,360,7.0,16.0,20,0.00,,,0.00,Rainwise IP-100,2013-08-20 22:32:00,
2013-08-20 16:38:00,84.0,39.0,27.04,West,270,7.0,19.0,20,0.00,,,0.00,Rainwise IP-100,2013-08-20 22:38:00,
2013-08-20 16:43:00,85.0,39.0,27.04,NNW,337,5.0,16.0,20,0.00,,,0.00,Rainwise IP-100,2013-08-20 22:43:00,
2013-08-20 16:48:00,85.0,37.0,27.03,NNW,337,13.0,15.0,18,0.00,,,0.00,Rainwise IP-100,2013-08-20 22:48:00,
2013-08-20 16:53:00,85.0,39.0,27.03,West,270,8.0,16.0,20,0.00,,,0.00,Rainwise IP-100,2013-08-20 22:53:00,
2013-08-20 16:58:00,84.0,39.0,27.04,West,270,6.0,17.0,20,0.00,,,0.00,Rainwise IP-100,2013-08-20 22:58:00,
2013-08-20 17:03:00,84.0,39.0,27.04,NW,315,6.0,14.0,20,0.00,,,0.00,Rainwise IP-100,2013-08-20 23:03:00,
2013-08-20 17:08:00,84.0,39.0,27.04,WNW,292,11.0,17.0,20,0.00,,,0.00,Rainwise IP-100,2013-08-20 23:08:00,
2013-08-20 17:13:00,84.0,39.0,27.04,West,270,8.0,17.0,20,0.00,,,0.00,Rainwise IP-100,2013-08-20 23:13:00,
2013-08-20 17:18:00,84.0,39.0,27.03,NNW,337,3.0,12.0,20,0.00,,,0.00,Rainwise IP-100,2013-08-20 23:18:00,
2013-08-20 17:23:00,84.0,39.0,27.03,WNW,292,4.0,15.0,20,0.00,,,0.00,Rainwise IP-100,2013-08-20 23:23:00,
2013-08-20 17:28:00,84.0,39.0,27.03,West,270,8.0,17.0,20,0.00,,,0.00,Rainwise IP-100,2013-08-20 23:28:00,
2013-08-20 17:33:00,84.0,39.0,27.03,WNW,292,7.0,13.0,20,0.00,,,0.00,Rainwise IP-100,2013-08-20 23:33:00,
2013-08-20 17:38:00,84.0,37.0,27.03,WSW,247,12.0,15.0,19,0.00,,,0.00,Rainwise IP-100,2013-08-20 23:38:00,
2013-08-20 17:43:00,85.0,38.0,27.03,WNW,292,10.0,14.0,19,0.00,,,0.00,Rainwise IP-100,2013-08-20 23:43:00,
2013-08-20 17:48:00,84.0,37.0,27.03,WNW,292,7.0,14.0,19,0.00,,,0.00,Rainwise IP-100,2013-08-20 23:48:00,
2013-08-20 17:53:00,85.0,38.0,27.03,NW,315,10.0,13.0,19,0.00,,,0.00,Rainwise IP-100,2013-08-20 23:53:00,
2013-08-20 17:58:00,84.0,37.0,27.04,WNW,292,12.0,16.0,19,0.00,,,0.00,Rainwise IP-100,2013-08-20 23:58:00,
2013-08-20 18:03:00,85.0,38.0,27.04,WNW,292,8.0,18.0,19,0.00,,,0.00,Rainwise IP-100,2013-08-21 00:03:00,
2013-08-20 18:08:00,85.0,39.0,27.04,NNW,337,2.0,13.0,20,0.00,,,0.00,Rainwise IP-100,2013-08-21 00:08:00,
2013-08-20 18:13:00,85.0,38.0,27.04,WNW,292,6.0,15.0,19,0.00,,,0.00,Rainwise IP-100,2013-08-21 00:13:00,
2013-08-20 18:18:00,85.0,38.0,27.04,NW,315,7.0,16.0,19,0.00,,,0.00,Rainwise IP-100,2013-08-21 00:18:00,
2013-08-20 18:23:00,85.0,38.0,27.04,West,270,7.0,11.0,19,0.00,,,0.00,Rainwise IP-100,2013-08-21 00:23:00,
2013-08-20 18:28:00,85.0,37.0,27.04,WNW,292,9.0,13.0,18,0.00,,,0.00,Rainwise IP-100,2013-08-21 00:28:00,
2013-08-20 18:33:00,85.0,37.0,27.04,NW,315,12.0,15.0,18,0.00,,,0.00,Rainwise IP-100,2013-08-21 00:33:00,
2013-08-20 18:38:00,84.0,36.0,27.04,NW,315,7.0,14.0,18,0.00,,,0.00,Rainwise IP-100,2013-08-21 00:38:00,
2013-08-20 18:43:00,84.0,36.0,27.04,North,360,5.0,14.0,18,0.00,,,0.00,Rainwise IP-100,2013-08-21 00:43:00,
2013-08-20 18:48:00,84.0,36.0,27.04,NW,315,12.0,15.0,18,0.00,,,0.00,Rainwise IP-100,2013-08-21 00:48:00,
2013-08-20 18:53:00,84.0,37.0,27.04,NNW,337,7.0,19.0,19,0.00,,,0.00,Rainwise IP-100,2013-08-21 00:53:00,
2013-08-20 18:58:00,84.0,37.0,27.04,NNW,337,9.0,12.0,19,0.00,,,0.00,Rainwise IP-100,2013-08-21 00:58:00,
2013-08-20 19:03:00,84.0,37.0,27.04,WNW,292,2.0,15.0,19,0.00,,,0.00,Rainwise IP-100,2013-08-21 01:03:00,
2013-08-20 19:08:00,83.0,37.0,27.03,NNW,337,6.0,14.0,19,0.00,,,0.00,Rainwise IP-100,2013-08-21 01:08:00,
2013-08-20 19:13:00,83.0,37.0,27.03,WNW,292,6.0,13.0,19,0.00,,,0.00,Rainwise IP-100,2013-08-21 01:13:00,
2013-08-20 19:18:00,83.0,36.0,27.04,North,360,5.0,12.0,18,0.00,,,0.00,Rainwise IP-100,2013-08-21 01:18:00,
2013-08-20 19:19:00,83.0,36.0,27.04,NW,315,4.0,12.0,18,0.00,,,0.00,Rainwise IP-100,2013-08-21 01:19:00,
2013-08-20 19:24:00,83.0,37.0,27.04,NW,315,3.0,12.0,19,0.00,,,0.00,Rainwise IP-100,2013-08-21 01:24:00,
2013-08-20 19:29:00,83.0,37.0,27.03,West,270,3.0,10.0,19,0.00,,,0.00,Rainwise IP-100,2013-08-21 01:29:00,
2013-08-20 19:34:00,82.0,36.0,27.03,NNW,337,7.0,12.0,19,0.00,,,0.00,Rainwise IP-100,2013-08-21 01:34:00,
2013-08-20 19:39:00,82.0,37.0,27.03,NW,315,7.0,13.0,20,0.00,,,0.00,Rainwise IP-100,2013-08-21 01:39:00,
2013-08-20 19:44:00,82.0,37.0,27.03,WNW,292,8.0,15.0,20,0.00,,,0.00,Rainwise IP-100,2013-08-21 01:44:00,
2013-08-20 19:49:00,81.0,36.0,27.03,West,270,7.0,11.0,20,0.00,,,0.00,Rainwise IP-100,2013-08-21 01:49:00,
2013-08-20 19:54:00,81.0,36.0,27.03,West,270,12.0,12.0,20,0.00,,,0.00,Rainwise IP-100,2013-08-21 01:54:00,
2013-08-20 19:59:00,80.0,38.0,27.02,WNW,292,2.0,12.0,22,0.00,,,0.00,Rainwise IP-100,2013-08-21 01:59:00,
2013-08-20 20:04:00,79.0,37.0,27.02,West,270,3.0,10.0,22,0.00,,,0.00,Rainwise IP-100,2013-08-21 02:04:00,
2013-08-20 20:09:00,79.0,38.0,27.02,WNW,292,7.0,13.0,23,0.00,,,0.00,Rainwise IP-100,2013-08-21 02:09:00,
2013-08-20 20:14:00,79.0,38.0,27.02,WNW,292,5.0,9.0,23,0.00,,,0.00,Rainwise IP-100,2013-08-21 02:14:00,
2013-08-20 20:19:00,78.0,37.0,27.00,WNW,292,6.0,10.0,23,0.00,,,0.00,Rainwise IP-100,2013-08-21 02:19:00,
2013-08-20 20:24:00,78.0,37.0,27.00,WNW,292,6.0,7.0,23,0.00,,,0.00,Rainwise IP-100,2013-08-21 02:24:00,
2013-08-20 20:29:00,78.0,37.0,27.00,WNW,292,6.0,9.0,23,0.00,,,0.00,Rainwise IP-100,2013-08-21 02:29:00,
2013-08-20 20:34:00,77.0,37.0,27.00,WNW,292,4.0,10.0,23,0.00,,,0.00,Rainwise IP-100,2013-08-21 02:34:00,
2013-08-20 20:39:00,77.0,37.0,27.01,West,270,4.0,6.0,23,0.00,,,0.00,Rainwise IP-100,2013-08-21 02:39:00,
2013-08-20 20:44:00,77.0,38.0,27.01,West,270,6.0,8.0,24,0.00,,,0.00,Rainwise IP-100,2013-08-21 02:44:00,
2013-08-20 20:49:00,77.0,38.0,27.00,WNW,292,3.0,8.0,24,0.00,,,0.00,Rainwise IP-100,2013-08-21 02:49:00,
2013-08-20 20:54:00,76.0,37.0,27.00,WNW,292,3.0,7.0,24,0.00,,,0.00,Rainwise IP-100,2013-08-21 02:54:00,
2013-08-20 20:59:00,76.0,38.0,27.01,WNW,292,1.0,7.0,25,0.00,,,0.00,Rainwise IP-100,2013-08-21 02:59:00,
2013-08-20 21:04:00,75.0,37.0,27.01,WNW,292,2.0,5.0,25,0.00,,,0.00,Rainwise IP-100,2013-08-21 03:04:00,
2013-08-20 21:09:00,75.0,38.0,27.01,NW,315,0.0,7.0,26,0.00,,,0.00,Rainwise IP-100,2013-08-21 03:09:00,
2013-08-20 21:14:00,74.0,38.0,27.01,NNW,337,1.0,3.0,27,0.00,,,0.00,Rainwise IP-100,2013-08-21 03:14:00,
2013-08-20 21:19:00,73.0,39.0,27.01,North,360,0.0,2.0,29,0.00,,,0.00,Rainwise IP-100,2013-08-21 03:19:00,
2013-08-20 21:24:00,72.0,38.0,27.01,ESE,112,1.0,2.0,29,0.00,,,0.00,Rainwise IP-100,2013-08-21 03:24:00,
2013-08-20 21:29:00,72.0,38.0,27.02,ESE,112,1.0,2.0,29,0.00,,,0.00,Rainwise IP-100,2013-08-21 03:29:00,
2013-08-20 21:34:00,71.0,38.0,27.02,South,180,0.0,2.0,30,0.00,,,0.00,Rainwise IP-100,2013-08-21 03:34:00,
2013-08-20 21:39:00,71.0,38.0,27.03,South,180,0.0,0.0,30,0.00,,,0.00,Rainwise IP-100,2013-08-21 03:39:00,
2013-08-20 21:44:00,70.0,37.0,27.03,North,360,1.0,7.0,30,0.00,,,0.00,Rainwise IP-100,2013-08-21 03:44:00,
2013-08-20 21:49:00,70.0,37.0,27.02,North,360,0.0,3.0,30,0.00,,,0.00,Rainwise IP-100,2013-08-21 03:49:00,
2013-08-20 21:54:00,69.0,37.0,27.02,North,360,0.0,0.0,31,0.00,,,0.00,Rainwise IP-100,2013-08-21 03:54:00,
2013-08-20 21:59:00,69.0,38.0,27.03,North,360,0.0,0.0,33,0.00,,,0.00,Rainwise IP-100,2013-08-21 03:59:00,
2013-08-20 22:01:00,69.0,39.0,27.03,North,360,0.0,0.0,34,0.00,,,0.00,Rainwise IP-100,2013-08-21 04:01:00,
2013-08-20 22:02:00,69.0,39.0,27.03,North,360,0.0,0.0,34,0.00,,,0.00,Rainwise IP-100,2013-08-21 04:02:00,
2013-08-20 22:07:00,68.0,38.0,27.04,SE,135,0.0,2.0,34,0.00,,,0.00,Rainwise IP-100,2013-08-21 04:07:00,
2013-08-20 22:12:00,68.0,39.0,27.04,NW,315,0.0,3.0,35,0.00,,,0.00,Rainwise IP-100,2013-08-21 04:12:00,
2013-08-20 22:17:00,68.0,40.0,27.04,NW,315,0.0,3.0,36,0.00,,,0.00,Rainwise IP-100,2013-08-21 04:17:00,
2013-08-20 22:22:00,67.0,39.0,27.04,NW,315,0.0,0.0,36,0.00,,,0.00,Rainwise IP-100,2013-08-21 04:22:00,
2013-08-20 22:27:00,67.0,40.0,27.04,SSE,157,0.0,4.0,37,0.00,,,0.00,Rainwise IP-100,2013-08-21 04:27:00,
2013-08-20 22:32:00,67.0,40.0,27.04,SSE,157,0.0,2.0,37,0.00,,,0.00,Rainwise IP-100,2013-08-21 04:32:00,
2013-08-20 22:37:00,66.0,39.0,27.04,SSE,157,0.0,2.0,37,0.00,,,0.00,Rainwise IP-100,2013-08-21 04:37:00,
2013-08-20 22:42:00,66.0,40.0,27.04,SSE,157,0.0,2.0,39,0.00,,,0.00,Rainwise IP-100,2013-08-21 04:42:00,
2013-08-20 22:47:00,65.0,40.0,27.05,SSE,157,0.0,0.0,40,0.00,,,0.00,Rainwise IP-100,2013-08-21 04:47:00,
2013-08-20 22:52:00,65.0,39.0,27.05,SSE,157,1.0,3.0,39,0.00,,,0.00,Rainwise IP-100,2013-08-21 04:52:00,
2013-08-20 22:57:00,65.0,40.0,27.05,SSE,157,0.0,2.0,41,0.00,,,0.00,Rainwise IP-100,2013-08-21 04:57:00,
2013-08-20 23:02:00,65.0,40.0,27.05,ESE,112,0.0,3.0,40,0.00,,,0.00,Rainwise IP-100,2013-08-21 05:02:00,
2013-08-20 23:07:00,65.0,40.0,27.05,ESE,112,0.0,4.0,40,0.00,,,0.00,Rainwise IP-100,2013-08-21 05:07:00,
2013-08-20 23:12:00,65.0,40.0,27.05,ESE,112,1.0,2.0,40,0.00,,,0.00,Rainwise IP-100,2013-08-21 05:12:00,
2013-08-20 23:17:00,64.0,40.0,27.05,ESE,112,0.0,3.0,41,0.00,,,0.00,Rainwise IP-100,2013-08-21 05:17:00,
2013-08-20 23:22:00,64.0,40.0,27.05,ESE,112,0.0,0.0,42,0.00,,,0.00,Rainwise IP-100,2013-08-21 05:22:00,
2013-08-20 23:27:00,64.0,40.0,27.05,ESE,112,2.0,0.0,42,0.00,,,0.00,Rainwise IP-100,2013-08-21 05:27:00,
2013-08-20 23:32:00,63.0,39.0,27.05,ESE,112,0.0,3.0,42,0.00,,,0.00,Rainwise IP-100,2013-08-21 05:32:00,
2013-08-20 23:37:00,63.0,40.0,27.06,ESE,112,0.0,0.0,43,0.00,,,0.00,Rainwise IP-100,2013-08-21 05:37:00,
2013-08-20 23:42:00,63.0,41.0,27.06,ESE,112,0.0,0.0,44,0.00,,,0.00,Rainwise IP-100,2013-08-21 05:42:00,
2013-08-20 23:47:00,62.0,40.0,27.06,ESE,112,0.0,1.0,45,0.00,,,0.00,Rainwise IP-100,2013-08-21 05:47:00,
2013-08-20 23:52:00,62.0,41.0,27.06,ESE,112,0.0,2.0,46,0.00,,,0.00,Rainwise IP-100,2013-08-21 05:52:00,
2013-08-20 23:57:00,62.0,40.0,27.06,ESE,112,1.0,1.0,45,0.00,,,0.00,Rainwise IP-100,2013-08-21 05:57:00,